Location: Nag� el Ma?a??a
(24.0667°N, 32.8833°E)
Time: 17:08:26
(UTC+00:00)

Cosmos 2315 Rocket - Pass Details

Date: 25 September 2021
Orbit: 966 x 1002 km, 82.9° (Epoch: 16 October)

Event Time Altitude Azimuth Distance (km) Brightness Sun altitude
Rises 02:33:20 0° 182° (S) 3,704 7.0 -15.6°
Reaches altitude 10° 02:35:51 10° 181° (S) 2,760 6.3 -15.0°
Maximum altitude 02:42:12 84° 94° (E) 1,010 4.1 -13.6°
Drops below altitude 10° 02:48:35 10° 7° (N) 2,773 6.5 -12.1°
Sets 02:51:07 0° 6° (N) 3,723 7.2 -11.6°
